This is the latest recevied weather packets stored in our database for station/object N3FAA. If no packets are shown the sender has not sent any weather packets the latest 10 day(s).
| Time | Temp. | Humidity | Pressure | Rain* | Wind** | Luminosity | Snow |
|---|---|---|---|---|---|---|---|
| 1777415823 | 22.22° C | 24% | 1012.3 hPa | 0 mm | - | 588 W/m² | - |
| 1777415519 | 22.78° C | 25% | 1012.6 hPa | 0 mm | - | 619 W/m² | - |
| 1777415215 | 23.33° C | 23% | 1012.6 hPa | 0 mm | - | 603 W/m² | - |
| 1777414910 | 22.78° C | 24% | 1013 hPa | 0 mm | - | 603 W/m² | - |
| 1777414609 | 22.78° C | 25% | 1013 hPa | 0 mm | - | 630 W/m² | - |
| 1777414304 | 22.22° C | 24% | 1013.1 hPa | 0 mm | - | 645 W/m² | - |
| 1777413999 | 22.22° C | 24% | 1013 hPa | 0 mm | - | 626 W/m² | - |
| 1777413694 | 22.78° C | 23% | 1013.2 hPa | 0 mm | - | 591 W/m² | - |
| 1777413391 | 22.22° C | 23% | 1013.1 hPa | 0 mm | - | 585 W/m² | - |
| 1777413087 | 22.78° C | 23% | 1013.4 hPa | 0 mm | - | 580 W/m² | - |
| 1777412787 | 22.22° C | 24% | 1013.3 hPa | 0 mm | - | 603 W/m² | - |
| 1777412481 | 22.22° C | 24% | 1013.5 hPa | 0 mm | - | 626 W/m² | - |
| 1777412178 | 22.78° C | 24% | 1013.5 hPa | 0 mm | - | 601 W/m² | - |
| 1777411875 | 22.78° C | 23% | 1013.6 hPa | 0 mm | - | 599 W/m² | - |
| 1777411573 | 22.22° C | 25% | 1013.7 hPa | 0 mm | - | 656 W/m² | - |
| 1777411269 | 22.78° C | 23% | 1013.9 hPa | 0 mm | - | 675 W/m² | - |
| 1777410963 | 21.67° C | 25% | 1013.5 hPa | 0 mm | - | 659 W/m² | - |
| 1777410663 | 22.22° C | 25% | 1013.7 hPa | 0 mm | - | 638 W/m² | - |
| 1777410357 | 22.22° C | 25% | 1013.9 hPa | 0 mm | - | 639 W/m² | - |
| 1777410051 | 21.67° C | 25% | 1014.1 hPa | 0 mm | - | 624 W/m² | - |
| 1777409746 | 21.67° C | 26% | 1013.8 hPa | 0 mm | - | 662 W/m² | - |
| 1777409443 | 21.11° C | 26% | 1014 hPa | 0 mm | - | 709 W/m² | - |
| 1777409138 | 21.11° C | 26% | 1013.9 hPa | 0 mm | - | 751 W/m² | - |
| 1777408835 | 21.11° C | 28% | 1014 hPa | 0 mm | - | 737 W/m² | - |
| 1777408531 | 21.11° C | 27% | 1013.9 hPa | 0 mm | - | 710 W/m² | - |
* Rain latest hour (hover to see other rain measurements)
** Current wind speed in m/s (hover to see current wind gust speed)